TimeMDT,TemperatureF,Dew PointF,Humidity,Sea Level PressureIn,VisibilityMPH,Wind Direction,Wind SpeedMPH,Gust SpeedMPH,PrecipitationIn,Events,Conditions,WindDirDegrees,DateUTC
12:53 AM,37.0,28.9,73,29.64,10.0,ESE,3.5,-,N/A,,Clear,120,2013-03-21 06:53:00
1:53 AM,43.0,30.0,60,29.60,10.0,West,4.6,-,N/A,,Clear,270,2013-03-21 07:53:00
2:53 AM,32.0,27.0,82,29.61,10.0,SSE,3.5,-,N/A,,Clear,160,2013-03-21 08:53:00
3:53 AM,30.0,25.0,82,29.59,10.0,East,3.5,-,N/A,,Clear,90,2013-03-21 09:53:00
4:53 AM,28.0,23.0,81,29.57,10.0,ESE,6.9,-,N/A,,Clear,110,2013-03-21 10:53:00
5:53 AM,28.0,21.9,78,29.60,10.0,East,9.2,-,N/A,,Partly Cloudy,100,2013-03-21 11:53:00
6:53 AM,27.0,21.0,78,29.59,10.0,ESE,10.4,-,N/A,,Clear,110,2013-03-21 12:53:00
7:53 AM,28.0,21.9,78,29.60,10.0,ESE,11.5,-,N/A,,Clear,120,2013-03-21 13:53:00
8:53 AM,30.0,24.1,79,29.59,10.0,ESE,9.2,-,N/A,,Mostly Cloudy,110,2013-03-21 14:53:00
9:53 AM,34.0,25.0,70,29.56,10.0,ESE,6.9,-,N/A,,Mostly Cloudy,110,2013-03-21 15:53:00
10:53 AM,37.0,26.1,65,29.54,10.0,ESE,9.2,-,N/A,,Clear,120,2013-03-21 16:53:00
11:53 AM,44.1,27.0,51,29.52,10.0,SE,9.2,-,N/A,,Scattered Clouds,140,2013-03-21 17:53:00
12:53 PM,46.9,28.0,48,29.52,10.0,Calm,Calm,-,N/A,,Mostly Cloudy,0,2013-03-21 18:53:00
2:53 PM,51.1,30.9,46,29.50,10.0,North,12.7,19.6,0.00,,Overcast,350,2013-03-21 20:53:00
3:24 PM,39.2,35.6,87,29.56,4.0,NW,28.8,42.6,0.03,Rain,Light Rain,320,2013-03-21 21:24:00
3:53 PM,39.9,36.0,86,29.62,10.0,NW,25.3,33.4,0.04,,Overcast,320,2013-03-21 21:53:00
4:53 PM,39.9,30.9,70,29.67,10.0,NW,20.7,29.9,N/A,,Overcast,320,2013-03-21 22:53:00
5:24 PM,39.2,30.2,70,29.64,10.0,NNW,20.7,32.2,N/A,,Overcast,340,2013-03-21 23:24:00
5:53 PM,37.9,30.9,76,29.71,10.0,NNW,18.4,27.6,N/A,,Overcast,340,2013-03-21 23:53:00
6:26 PM,37.4,28.4,70,29.68,10.0,NNW,17.3,29.9,N/A,,Mostly Cloudy,340,2013-03-22 00:26:00
6:53 PM,36.0,28.0,73,29.77,10.0,NNW,13.8,20.7,N/A,,Clear,340,2013-03-22 00:53:00
7:53 PM,35.1,26.1,70,29.81,10.0,NW,18.4,28.8,N/A,,Scattered Clouds,320,2013-03-22 01:53:00
8:53 PM,33.1,25.0,72,29.85,10.0,NW,12.7,-,N/A,,Clear,310,2013-03-22 02:53:00
9:53 PM,30.9,27.0,85,29.86,10.0,WNW,11.5,-,N/A,,Clear,300,2013-03-22 03:53:00
10:53 PM,28.9,25.0,85,29.88,10.0,WNW,11.5,-,N/A,,Clear,300,2013-03-22 04:53:00
11:53 PM,28.0,24.1,85,29.86,10.0,WNW,8.1,-,N/A,,Clear,290,2013-03-22 05:53:00